Regional Weather Roundup
Issued by NWS

Home | Current Version | Previous Version | Text Only | Print | Product List | Glossary On
Versions: 1 2 3 4 5 6 7 8 9 10 11 12 13 14 15 16 17 18 19 20 21 22 23 24 25 26 27 28 29 30 31 32 33 34 35 36 37 38 39 40 41 42 43 44 45 46 47 48 49 50
000
ASUS43 KOAX 261903
RWRNE

WEATHER ROUNDUP FOR NEBRASKA
NATIONAL WEATHER SERVICE OMAHA NE
200 PM CDT SAT MAY 26 2018

NOTES: SATELLITE DATA IS BEING USED TO AUGMENT CLOUD COVER ABOVE
       12000 FEET.
       "FAIR" INDICATES FEW OR NO CLOUDS BELOW 12,000 FEET WITH NO
       SIGNIFICANT WEATHER AND/OR OBSTRUCTIONS TO VISIBILITY.


NEZ001>004-019>022-054>056-262000-
NEBRASKA PANHANDLE

CITY           SKY/WX    TMP DP  RH WIND       PRES   REMARKS
SCOTTSBLUFF    SUNNY     91  57  31 SE9       29.81F
ALLIANCE       SUNNY     89  54  30 S24G30    29.83F
CHADRON        SUNNY     90  59  35 SW14      29.77F
GORDON         FAIR      91  53  27 S17G23    29.83F
KIMBALL        SUNNY     84  52  32 SE12      29.89F
SIDNEY         SUNNY     93  46  19 S21G26    29.87F
$$

NEZ057>060-069>072-079>082-262000-
SOUTHWEST NEBRASKA

CITY           SKY/WX    TMP DP  RH WIND       PRES   REMARKS
NORTH PLATTE   SUNNY     90  65  43 W9        29.84F HX  92
IMPERIAL       SUNNY     96  45  17 S16G31    29.83F HX  92
LEXINGTON      SUNNY     90  64  42 SW9       29.84F HX  91
MCCOOK         SUNNY     93  55  27 S14G22    29.82F HX  91
$$

NEZ005>010-023>029-035>040-094-262000-
NORTH CENTRAL NEBRASKA

CITY           SKY/WX    TMP DP  RH WIND       PRES   REMARKS
VALENTINE      SUNNY     91  61  36 S12       29.81F HX  91
AINSWORTH      SUNNY     87  61  41 S9        29.84S
BROKEN BOW     SUNNY     92  60  34 SW8       29.83F HX  91
ORD            SUNNY     91  60  35 E8        29.80F HX  90
$$

NEZ041-046>049-061>064-073>077-083>087-262000-
SOUTH CENTRAL NEBRASKA

CITY           SKY/WX    TMP DP  RH WIND       PRES   REMARKS
GRAND ISLAND   SUNNY     97  64  33 W8        29.81F HX  99
AURORA         SUNNY     94  58  29 NW3       29.80F HX  93
HASTINGS       SUNNY     94  59  31 E5        29.82F HX  93
KEARNEY        SUNNY     94  55  26 SW9       29.83F HX  92
YORK           SUNNY     93  59  31 NW5       29.80F HX  92
$$

NEZ011>018-030>034-042>045-262000-
NORTHEAST NEBRASKA

CITY           SKY/WX    TMP DP  RH WIND       PRES   REMARKS
ALBION         SUNNY     93  60  32 SE5       29.80F HX  93
BLAIR          SUNNY     93  57  29 N3        29.78F HX  92
COLUMBUS       SUNNY     95  57  27 SE7       29.79F HX  94
FREMONT        SUNNY     96  57  26 SE6       29.78S HX  95
TEKAMAH        SUNNY     97  55  24 N12G17    29.76F HX  95
$$

NEZ050>053-065>068-078-088>093-262000-
SOUTHEAST NEBRASKA

CITY           SKY/WX    TMP DP  RH WIND       PRES   REMARKS
LINCOLN        SUNNY     96  60  30 SE3       29.78F HX  96
OMAHA EPPLEY   SUNNY     98  54  22 NE6       29.75F HX  96
BEATRICE       SUNNY     97  63  32 NW8       29.78S HX  98
FALLS CITY     SUNNY     98  57  25 CALM      29.75F HX  97
NEBRASKA CITY  SUNNY     96  58  27 CALM      29.78S HX  95
$$

NEZ044-045-051>053-067-262000-
OMAHA AREA

CITY           SKY/WX    TMP DP  RH WIND       PRES   REMARKS
OMAHA EPPLEY   SUNNY     98  54  22 NE6       29.75F HX  96
BLAIR          SUNNY     93  57  29 N3        29.78F HX  92
FREMONT        SUNNY     96  57  26 SE6       29.78S HX  95
OFFUTT AFB     SUNNY     96  58  28 CALM      29.75F HX  94
WAHOO          FAIR      98  47  17 SW6       29.77F HX  94
$$




USA.gov is the U.S. government's official web portal to all federal, state and local government web resources and services.